Weather History for Whiteman AFB, MO

Change the Weather History Date:

Wednesday, July 17, 2013

  Actual Average Record
Temperature  
Mean Temperature 84 °F -  
Max Temperature 95 °F 88 °F 99 °F (2012)
Min Temperature 72 °F 69 °F 55 °F (2014)
Cooling Degree Days 18    
Growing Degree Days 34 (Base 50)    
Moisture  
Dew Point 72 °F    
Average Humidity 73    
Maximum Humidity 100    
Minimum Humidity 41    
Precipitation  
Precipitation 0.00 in - - ()
Sea Level Pressure  
Sea Level Pressure 30.26 in    
Wind  
Wind Speed 4 mph (South)    
Max Wind Speed 10 mph    
Max Gust Speed -    
Visibility 10 miles    
Events      
Averages and records for this station are not official NWS values.
T = Trace of Precipitation, MM = Missing Value Source: NWS Daily Summary

Daily Weather History Graph

Daily Weather History Graph

Search for Another Location

Airport:

Trip Planner

Search our weather history database for the weather conditions in past years. The results will help you decide how hot, cold, wet, or windy it might be!

Date:

Astronomy

Jul. 17, 2013 Rise Set
Actual Time 6:03 AM CDT 8:37 PM CDT
Civil Twilight 5:32 AM CDT 9:07 PM CDT
Nautical Twilight 4:54 AM CDT 9:46 PM CDT
Astronomical Twilight 4:11 AM CDT 10:28 PM CDT
Moon 3:27 PM CDT (7/17) 1:09 AM CDT (7/17)
Length of Visible Light 15h 35m
Length of Day
14h 33m
Waxing Gibbous, 67% of the Moon is Illuminated
Jul 17
Waxing Gibbous
Jul 22
Full
Jul 29
Last Quarter
Aug 6
New
Aug 14
First Quarter

Hourly Weather History & Observations

Time (CDT) Temp. Heat Index Dew Point Humidity Pressure Visibility Wind Dir Wind Speed Gust Speed Precip Events Conditions
12:58 AM 75.9 °F - 72.3 °F 89% 30.27 in 10.0 mi Calm Calm - N/A   Clear
1:58 AM 75.0 °F - 73.6 °F 95% 30.27 in 10.0 mi SSE 2.3 mph - N/A   Clear
2:58 AM 74.1 °F - 74.1 °F 100% 30.27 in 10.0 mi South 4.6 mph - N/A   Clear
3:58 AM 73.0 °F - 73.0 °F 100% 30.27 in 10.0 mi SSE 3.5 mph - N/A   Clear
4:58 AM 72.9 °F - 72.9 °F 100% 30.27 in 10.0 mi South 3.5 mph - N/A   Clear
5:58 AM 72.1 °F - 72.1 °F 100% 30.29 in 10.0 mi SSW 2.3 mph - N/A   Clear
6:58 AM 72.9 °F - 72.9 °F 100% 30.30 in 10.0 mi SW 1.2 mph - N/A   Clear
7:58 AM 79.0 °F - 75.6 °F 89% 30.31 in 10.0 mi WSW 6.9 mph - N/A   Scattered Clouds
8:58 AM 81.0 °F 86.3 °F 74.1 °F 80% 30.32 in 10.0 mi SW 6.9 mph - N/A   Scattered Clouds
9:58 AM 84.2 °F 90.9 °F 73.4 °F 70% 30.32 in 10.0 mi SW 4.6 mph - N/A   Partly Cloudy
9:59 AM 84.2 °F 90.9 °F 73.4 °F 70% 30.33 in 10.0 mi SW 4.6 mph - N/A   Partly Cloudy
10:58 AM 87.8 °F 94.7 °F 72.5 °F 60% 30.31 in 10.0 mi West 8.1 mph - N/A   Scattered Clouds
11:58 AM 88.5 °F 95.3 °F 72.1 °F 58% 30.32 in 10.0 mi WSW 4.6 mph - N/A   Scattered Clouds
12:58 PM 90.1 °F 96.8 °F 71.2 °F 54% 30.31 in 10.0 mi Variable 2.3 mph - N/A   Scattered Clouds
1:58 PM 89.4 °F 95.8 °F 71.2 °F 55% 30.29 in 10.0 mi South 3.5 mph - N/A   Scattered Clouds
2:58 PM 92.7 °F 98.8 °F 70.3 °F 48% 30.26 in 10.0 mi SSW 4.6 mph - N/A   Scattered Clouds
3:58 PM 93.4 °F 99.7 °F 70.7 °F 47% 30.25 in 10.0 mi South 5.8 mph - N/A   Scattered Clouds
4:58 PM 95.0 °F 99.5 °F 68.2 °F 41% 30.22 in 10.0 mi South 10.4 mph - N/A   Partly Cloudy
5:58 PM 93.7 °F 98.2 °F 67.8 °F 43% 30.21 in 10.0 mi South 5.8 mph - N/A   Clear
6:58 PM 93.7 °F 97.7 °F 67.5 °F 42% 30.19 in 10.0 mi SSW 4.6 mph - N/A   Clear
7:58 PM 87.8 °F 94.3 °F 72.0 °F 59% 30.19 in 10.0 mi ENE 6.9 mph - N/A   Clear
8:58 PM 82.4 °F 86.7 °F 70.9 °F 68% 30.19 in 10.0 mi ENE 4.6 mph - N/A   Clear
9:58 PM 80.2 °F 83.9 °F 71.4 °F 74% 30.21 in 10.0 mi ESE 4.6 mph - N/A   Clear
10:58 PM 78.8 °F - 73.2 °F 83% 30.20 in 10.0 mi ESE 3.5 mph - N/A   Clear
11:58 PM 77.7 °F - 74.3 °F 89% 30.22 in 10.0 mi ESE 4.6 mph - N/A   Clear